Location: Newark
(25.6108°S, 54.5803°W)
Time: 20:36:33
(UTC+00:00)

S-56A Canister/Altair - Visible Passes

Search period start: 28 October 2020 00:00
Search period end: 07 November 2020 00:00
Orbit: 633 x 2499 km, 38.9° (Epoch: 27 October)

Date Brightness Start Highest point End Pass type
(mag) Time Alt. Az. Time Alt. Az. Time Alt. Az.
28 Oct 9.6 00:28:56 10° WSW 00:38:05 35° S 00:40:27 29° SE visible
28 Oct 10.6 02:36:08 10° SW 02:37:53 17° SW 02:37:53 17° SW visible
28 Oct 9.9 23:54:57 10° WSW 00:04:54 36° S 00:09:28 21° SE visible
29 Oct 10.0 02:02:42 10° SW 02:06:52 28° SW 02:06:52 28° SW visible
29 Oct 10.1 23:20:52 10° WSW 23:31:40 37° S 23:38:27 13° ESE visible
30 Oct 9.5 01:29:10 10° SW 01:35:51 42° SSW 01:35:51 42° SSW visible
30 Oct 10.2 22:46:43 10° WSW 22:58:19 39° S 23:06:27 10° ESE visible
31 Oct 9.1 00:55:32 10° SW 01:04:50 50° S 01:04:50 50° S visible
31 Oct 10.4 22:12:31 10° WSW 22:24:53 41° S 22:33:42 10° ESE visible
01 Nov 9.1 00:21:47 10° SW 00:32:08 49° SSE 00:33:49 43° SE visible
01 Nov 10.5 02:28:55 10° WSW 02:31:14 19° WSW 02:31:14 19° WSW visible
01 Nov 9.5 23:47:56 10° WSW 23:58:59 47° SSE 00:02:48 30° ESE visible
02 Nov 9.9 01:55:20 10° WSW 02:00:12 32° WSW 02:00:12 32° WSW visible
02 Nov 9.8 23:13:59 10° WSW 23:25:43 46° SSE 23:31:46 19° ESE visible
03 Nov 9.2 01:21:42 10° WSW 01:29:12 52° WSW 01:29:12 52° WSW visible
03 Nov 10.0 22:39:58 10° WSW 22:52:21 45° S 23:00:46 10° E visible
04 Nov 8.6 00:48:00 10° WSW 00:58:11 80° SW 00:58:11 80° SW visible
04 Nov 10.2 22:05:55 10° WSW 22:18:53 45° S 22:28:04 10° ESE visible
05 Nov 8.6 00:14:14 10° WSW 00:25:45 78° SSE 00:27:12 64° E visible
05 Nov 10.6 02:22:28 10° WSW 02:24:37 16° W 02:24:37 16° W visible
05 Nov 9.1 23:40:26 10° WSW 23:52:38 72° SSE 23:56:14 40° E visible
06 Nov 10.1 01:48:30 10° WSW 01:53:39 27° W 01:53:39 27° W visible
06 Nov 9.3 23:06:34 10° WSW 23:19:25 66° SSE 23:25:17 25° E visible
